User: anonymous
Location: Fort Wayne
(41.1310°N, 85.1290°W)
Time: 00:17:44
(UTC-04:00)
Language:

IDEFIX/ARIANE 42P - Orbit

View from above orbital plane
View from above orbital plane
View from above satellite
View from above satellite

Ground track
Ground track

The orbit data is extracted from the following two-line orbital elements,

1 27422U 02021B   14265.20637586  .00000109  00000-0  59381-4 0  5982
2 27422 098.2905 303.0377 0011275 319.9143 081.7559 14.29051491643993
Epoch (UTC): 22 September 2014 04:57:10
Eccentricity: 0.0011275
inclination: 98.2905°
perigee height: 787 km
apogee height: 803 km
right ascension of ascending node: 303.0377°
argument of perigee: 319.9143°
revolutions per day: 14.29051491
mean anomaly at epoch: 81.7559°
orbit number at epoch: 64399

The dashed part of the orbit path shows where the satellite is in the earth's shadow,  

DLR